Location: Oak Glen
(34.0495°N, 116.9470°E)
Time: 12:36:08
(UTC-08:00)

Tiangong 2 - Pass Details

Date: 12 October 2017
Orbit: 386 x 390 km, 42.8° (Epoch: 16 December)

Event Time Altitude Azimuth Distance (km) Brightness Sun altitude
Exits shadow 14:33:49 - 311° (NW) 1,514 3.6 -9.4°
Reaches altitude 10° 14:34:09 10° 315° (NW) 1,419 3.5 -9.4°
Maximum altitude 14:36:20 17° 358° (N) 1,085 3.3 -8.9°
Drops below altitude 10° 14:38:31 10° 41° (NE) 1,421 4.5 -8.5°
Sets 14:41:06 0° 63° (ENE) 2,278 6.1 -7.9°
